Location: A�t Bou Chrif
(32.7193°N, 5.2385°W)
Time: 03:40:46
(UTC+00:00)

Terra - Pass Details

Date: 08 August 2020
Orbit: 701 x 703 km, 98.2° (Epoch: 20 September)

Event Time Altitude Azimuth Distance (km) Brightness Sun altitude
Exits shadow 22:01:19 26° 23° (NNE) 1,370 3.5 -30.4°
Drops below altitude 10° 22:03:41 10° 4° (N) 2,174 4.8 -30.7°
Sets 22:06:02 0° 357° (N) 3,096 5.9 -31.0°
